TimeEDT,TemperatureF,Dew PointF,Humidity,Sea Level PressureIn,VisibilityMPH,Wind Direction,Wind SpeedMPH,Gust SpeedMPH,PrecipitationIn,Events,Conditions,WindDirDegrees,DateUTC
12:00 AM,66.2,57.2,73,29.93,15.0,ESE,5.8,-,N/A,,Clear,120,2013-05-20 04:00:00
1:00 AM,64.4,59.0,83,29.94,15.0,South,4.6,-,N/A,,Clear,180,2013-05-20 05:00:00
2:00 AM,65,59,76,29.93,15,SSE,3.5,,,,Clear,160,2013-05-20 06:00:00
2:00 AM,66.2,59.0,78,29.93,15.0,SSE,3.5,-,N/A,,Partly Cloudy,150,2013-05-20 06:00:00
3:00 AM,64.4,59.0,83,29.93,15.0,SSE,2.3,-,N/A,,Partly Cloudy,150,2013-05-20 07:00:00
4:00 AM,64.4,60.8,88,29.94,15.0,SSE,3.5,-,N/A,,Scattered Clouds,150,2013-05-20 08:00:00
5:00 AM,64.4,60.8,88,29.93,15.0,SSE,4.6,-,N/A,,Mostly Cloudy,150,2013-05-20 09:00:00
6:00 AM,64.4,60.8,88,29.94,12.0,SSE,5.8,-,N/A,,Scattered Clouds,150,2013-05-20 10:00:00
7:00 AM,64.4,60.8,88,29.94,10.0,ESE,3.5,-,N/A,,Scattered Clouds,110,2013-05-20 11:00:00
8:00 AM,69,63,76,29.92,12,SSE,6.9,,,,Clear,150,2013-05-20 12:00:00
8:00 AM,68.0,62.6,83,29.92,12.0,SSE,8.1,-,N/A,,Mostly Cloudy,150,2013-05-20 12:00:00
9:00 AM,73.4,64.4,73,29.93,15.0,South,8.1,-,N/A,,Mostly Cloudy,180,2013-05-20 13:00:00
10:00 AM,77.0,66.2,69,29.95,15.0,SSW,11.5,-,N/A,,Overcast,210,2013-05-20 14:00:00
11:00 AM,75.2,66.2,73,29.94,10.0,SW,8.1,-,N/A,,Mostly Cloudy,220,2013-05-20 15:00:00
12:00 PM,77.0,68.0,74,29.93,10.0,South,12.7,-,N/A,,Mostly Cloudy,170,2013-05-20 16:00:00
1:00 PM,82.4,69.8,66,29.91,8.0,SW,12.7,-,N/A,,Mostly Cloudy,220,2013-05-20 17:00:00
2:00 PM,84,69,53,29.89,10,South,15.0,,,,Scattered Clouds,190,2013-05-20 18:00:00
2:00 PM,84.2,69.8,62,29.89,10.0,SSW,16.1,23.0,N/A,,Mostly Cloudy,200,2013-05-20 18:00:00
3:00 PM,84.2,69.8,62,29.87,10.0,South,18.4,24.2,N/A,,Mostly Cloudy,180,2013-05-20 19:00:00
4:00 PM,86.0,69.8,58,29.83,8.0,South,19.6,25.3,N/A,,Mostly Cloudy,170,2013-05-20 20:00:00
5:00 PM,86.0,68.0,55,29.80,8.0,South,18.4,25.3,N/A,,Mostly Cloudy,180,2013-05-20 21:00:00
6:00 PM,86.0,66.2,51,29.80,8.0,South,15.0,21.9,N/A,,Mostly Cloudy,180,2013-05-20 22:00:00
7:00 PM,86.0,64.4,48,29.80,7.0,SSW,13.8,20.7,N/A,,Mostly Cloudy,200,2013-05-20 23:00:00
8:00 PM,85,63,38,29.81,7,SW,10.4,,,,Haze,220,2013-05-21 00:00:00
8:00 PM,86.0,62.6,45,29.81,7.0,SW,10.4,-,N/A,,Mostly Cloudy,220,2013-05-21 00:00:00
9:00 PM,82.4,62.6,51,29.81,8.0,SW,8.1,-,N/A,,Mostly Cloudy,220,2013-05-21 01:00:00
10:00 PM,78.8,62.6,57,29.83,15.0,SSW,8.1,-,N/A,,Mostly Cloudy,200,2013-05-21 02:00:00
11:00 PM,78.8,64.4,61,29.84,15.0,SSW,9.2,-,N/A,,Mostly Cloudy,200,2013-05-21 03:00:00